DLH515 EDDH-EDDS

Flight info

Callsign DLH515
Flight time N/A
Altitude 33000
Route IDEKO7G/33 IDEKO N850 NIE DCT BERXO DCT SILWE DCT OSBIT P605 TOSTU T726 LBU
Aircraft A320/M-SDE3FGHIRWY/LB1

Departure

Time 2026-04-25 14:28
Airport Hamburg Helmut Schmidt Airport (EDDH)

Arrival

Time N/A
Airport Stuttgart Airport (EDDS)
Time Latitude Longitude Altitude Speed Heading
2026-04-25 13:31 53.63243 10.00016 46 ft 0 kts 322°
2026-04-25 14:13 53.63242 10.00017 50 ft 2 kts 322°
2026-04-25 14:13 53.63229 10.00035 47 ft 2 kts 322°
2026-04-25 14:13 53.63225 10.00039 47 ft 0 kts 322°
2026-04-25 14:13 53.63212 10.00055 47 ft 2 kts
2026-04-25 14:14 53.63201 10.00051 49 ft 0 kts 46°
2026-04-25 14:19 53.63210 10.00080 49 ft 10 kts 59°
2026-04-25 14:20 53.63210 10.00176 48 ft 9 kts 139°
2026-04-25 14:20 53.63189 10.00187 51 ft 9 kts 175°
2026-04-25 14:20 53.63101 10.00194 49 ft 7 kts 175°
2026-04-25 14:20 53.63048 10.00156 51 ft 11 kts 214°
2026-04-25 14:21 53.62985 10.00090 50 ft 10 kts 212°
2026-04-25 14:21 53.62935 10.00030 50 ft 8 kts 226°
2026-04-25 14:21 53.62905 9.99937 50 ft 10 kts 244°
2026-04-25 14:21 53.62899 9.99915 50 ft 0 kts 244°
2026-04-25 14:26 53.62892 9.99891 47 ft 2 kts 244°
2026-04-25 14:26 53.62886 9.99868 50 ft 4 kts 244°
2026-04-25 14:26 53.62865 9.99793 46 ft 8 kts 254°
2026-04-25 14:26 53.62897 9.99718 50 ft 1 kts 335°
2026-04-25 14:27 53.62897 9.99719 50 ft 0 kts 335°
2026-04-25 14:27 53.62897 9.99718 50 ft 1 kts 335°
2026-04-25 14:27 53.63060 9.99577 48 ft 61 kts 331°
2026-04-25 14:27 53.63623 9.99086 48 ft 119 kts 333°
2026-04-25 14:28 53.64173 9.98607 52 ft 149 kts 333°
2026-04-25 14:28 53.65136 9.97806 476 ft 161 kts 328°
2026-04-25 14:28 53.66191 9.96942 1006 ft 175 kts 328°
2026-04-25 14:28 53.67312 9.95997 1639 ft 186 kts 328°
2026-04-25 14:29 53.68500 9.94976 2330 ft 196 kts 327°
2026-04-25 14:29 53.70149 9.93536 3428 ft 203 kts 325°
2026-04-25 14:29 53.70908 9.92562 3961 ft 204 kts 308°
2026-04-25 14:29 53.71452 9.90381 4775 ft 211 kts 280°
2026-04-25 14:30 53.71237 9.87787 4971 ft 234 kts 258°
2026-04-25 14:30 53.70187 9.82605 5098 ft 240 kts 258°
2026-04-25 14:30 53.69640 9.79939 6040 ft 241 kts 258°
2026-04-25 14:31 53.69093 9.77260 6940 ft 243 kts 258°
2026-04-25 14:31 53.68537 9.74519 7819 ft 245 kts 259°
2026-04-25 14:31 53.67997 9.71821 8677 ft 247 kts 259°
2026-04-25 14:31 53.67450 9.69064 9556 ft 249 kts 259°
2026-04-25 14:32 53.66899 9.66271 10349 ft 254 kts 259°
2026-04-25 14:32 53.66277 9.63319 10607 ft 282 kts 253°
2026-04-25 14:32 53.65113 9.60432 10979 ft 314 kts 234°
2026-04-25 14:32 53.63285 9.58174 11653 ft 338 kts 214°
2026-04-25 14:33 53.60963 9.57034 12321 ft 359 kts 195°
2026-04-25 14:33 53.58466 9.56521 13078 ft 363 kts 194°
2026-04-25 14:33 53.55944 9.56035 13804 ft 367 kts 194°
2026-04-25 14:33 53.53387 9.55552 14421 ft 371 kts 194°
2026-04-25 14:34 53.50809 9.55059 15047 ft 374 kts 194°
2026-04-25 14:34 53.48244 9.54563 15644 ft 378 kts 194°
2026-04-25 14:34 53.45617 9.54051 16263 ft 382 kts 194°
2026-04-25 14:34 53.42968 9.53535 16870 ft 386 kts 194°
2026-04-25 14:35 53.40286 9.53010 17467 ft 389 kts 194°
2026-04-25 14:35 53.37580 9.52476 18066 ft 393 kts 194°
2026-04-25 14:35 53.34854 9.51937 18614 ft 396 kts 194°
2026-04-25 14:35 53.32107 9.51398 19157 ft 398 kts 193°
2026-04-25 14:36 53.29341 9.50859 19688 ft 401 kts 193°
2026-04-25 14:36 53.26562 9.50317 20203 ft 404 kts 193°
2026-04-25 14:36 53.23759 9.49768 20707 ft 407 kts 193°
2026-04-25 14:36 53.20929 9.49212 21203 ft 410 kts 193°
2026-04-25 14:37 53.18080 9.48658 21684 ft 413 kts 193°
2026-04-25 14:37 53.15214 9.48107 22172 ft 416 kts 193°
2026-04-25 14:37 53.12366 9.47557 22645 ft 419 kts 193°
2026-04-25 14:37 53.09454 9.46990 23122 ft 422 kts 193°
2026-04-25 14:38 53.06528 9.46419 23575 ft 425 kts 193°
2026-04-25 14:38 53.03577 9.45844 23963 ft 428 kts 193°
2026-04-25 14:38 53.00609 9.45271 24334 ft 431 kts 193°
2026-04-25 14:38 52.97618 9.44684 24707 ft 433 kts 193°
2026-04-25 14:39 52.94655 9.44070 25075 ft 435 kts 193°
2026-04-25 14:39 52.91645 9.43419 25431 ft 438 kts 193°
2026-04-25 14:39 52.88614 9.42753 25788 ft 440 kts 193°
2026-04-25 14:39 52.85565 9.42082 26124 ft 443 kts 193°
2026-04-25 14:40 52.82502 9.41417 26478 ft 445 kts 193°
2026-04-25 14:40 52.79419 9.40759 26821 ft 448 kts 193°
2026-04-25 14:40 52.76321 9.40105 27163 ft 450 kts 193°
2026-04-25 14:40 52.73201 9.39451 27499 ft 453 kts 193°
2026-04-25 14:41 52.70439 9.38871 27790 ft 455 kts 193°
2026-04-25 14:41 52.67282 9.38206 28123 ft 458 kts 193°
2026-04-25 14:41 52.64093 9.37721 28449 ft 465 kts 186°
2026-04-25 14:41 52.60827 9.38005 28752 ft 473 kts 176°
2026-04-25 14:42 52.57576 9.39071 29082 ft 479 kts 171°
2026-04-25 14:42 52.55414 9.39893 29289 ft 481 kts 171°
2026-04-25 14:42 52.51079 9.41537 29698 ft 484 kts 171°
2026-04-25 14:42 52.47790 9.42774 29994 ft 486 kts 171°
2026-04-25 14:43 52.45988 9.43447 30150 ft 487 kts 171°
2026-04-25 14:43 52.43708 9.44296 30316 ft 489 kts 171°
2026-04-25 14:43 52.40381 9.45527 30566 ft 490 kts 171°
2026-04-25 14:43 52.37048 9.46758 30785 ft 492 kts 171°
2026-04-25 14:44 52.33701 9.47998 31025 ft 494 kts 171°
2026-04-25 14:44 52.30343 9.49243 31273 ft 496 kts 171°
2026-04-25 14:44 52.26969 9.50495 31592 ft 495 kts 171°
2026-04-25 14:44 52.23651 9.51726 31939 ft 494 kts 171°
2026-04-25 14:45 52.20301 9.52968 32284 ft 493 kts 171°
2026-04-25 14:45 52.16951 9.54207 32634 ft 493 kts 171°
2026-04-25 14:45 52.13610 9.55437 32926 ft 492 kts 171°
2026-04-25 14:45 52.10270 9.56662 33062 ft 490 kts 171°
2026-04-25 14:46 52.04108 9.58914 33084 ft 476 kts 171°
2026-04-25 14:46 51.97657 9.61273 33088 ft 474 kts 171°
2026-04-25 14:47 51.92496 9.63155 33091 ft 474 kts 171°
2026-04-25 14:47 51.84972 9.65893 33099 ft 473 kts 171°
2026-04-25 14:48 51.79032 9.68040 33076 ft 471 kts 171°
2026-04-25 14:48 51.72628 9.70348 33080 ft 471 kts 171°
2026-04-25 14:49 51.66219 9.72655 33092 ft 471 kts 171°
2026-04-25 14:49 51.59820 9.74953 33072 ft 471 kts 171°
2026-04-25 14:50 51.53426 9.77247 33087 ft 471 kts 171°
2026-04-25 14:50 51.47038 9.79539 33099 ft 470 kts 171°
2026-04-25 14:51 51.40651 9.81817 33099 ft 470 kts 171°
2026-04-25 14:51 51.34668 9.83940 33090 ft 469 kts 171°
2026-04-25 14:52 51.28293 9.86196 33095 ft 469 kts 171°
2026-04-25 14:52 51.22979 9.87837 33097 ft 465 kts 179°